When you browse on this site, cookies collect data to enhance your experience and personalize the content and advertising you see.
Visit our Privacy Policy to learn more. By continuing to use the site, you agree to this use of cookies and data.
  • In Deutschland
  • Länderverzeichnis
  • Für 7 Tage
  • Wassertemperatur
  • Wetterkarte
  • Widgets
  • user-avatar
    Anmelden

    Stündliche Wetter Zaharovskoe

    Heute, 19 Oktober, Samstag

    Zeit Temperatur Niederschläge Wind Luftdruck Luftfeuchtigkeit
    00:00 -5°C° 0 mm 3 m/S 757 mmHg 83%
    01:00 -6°C° 0 mm 3 m/S 757 mmHg 83%
    02:00 -6°C° 0 mm 3 m/S 757 mmHg 83%
    03:00 -7°C° 0 mm 4 m/S 758 mmHg 83%
    04:00 -7°C° 0 mm 3 m/S 758 mmHg 86%
    05:00 -7°C° 0 mm 3 m/S 759 mmHg 86%
    06:00 -8°C° 0 mm 3 m/S 759 mmHg 86%
    07:00 -8°C° 0 mm 3 m/S 759 mmHg 86%
    08:00 -7°C° 0 mm 3 m/S 760 mmHg 81%
    09:00 -7°C° 0 mm 4 m/S 760 mmHg 76%
    10:00 -5°C° 0 mm 4 m/S 761 mmHg 71%
    11:00 -4°C° 0 mm 4 m/S 761 mmHg 70%
    12:00 -4°C° 0 mm 3 m/S 761 mmHg 69%
    13:00 -2°C° 0 mm 3 m/S 761 mmHg 67%
    14:00 -4°C° 0 mm 3 m/S 761 mmHg 70%
    15:00 -3°C° 0 mm 2 m/S 762 mmHg 73%
    16:00 -4°C° 0 mm 2 m/S 762 mmHg 76%
    17:00 -4°C° 0 mm 2 m/S 763 mmHg 78%
    18:00 -5°C° 0 mm 2 m/S 763 mmHg 79%
    19:00 -6°C° 0 mm 2 m/S 763 mmHg 80%
    20:00 -4°C° 0 mm 1 m/S 764 mmHg 81%
    21:00 -4°C° 0 mm 1 m/S 764 mmHg 81%
    22:00 -4°C° 0 mm 1 m/S 765 mmHg 81%
    23:00 -4°C° 0 mm 1 m/S 765 mmHg 82%

    Morgen, 20 Oktober, Sonntag

    Zeit Temperatur Niederschläge Wind Luftdruck Luftfeuchtigkeit
    00:00 -6°C° 0 mm 1 m/S 765 mmHg 82%
    01:00 -6°C° 0 mm 1 m/S 765 mmHg 83%
    02:00 -6°C° 0 mm 1 m/S 765 mmHg 83%
    03:00 -6°C° 0 mm 1 m/S 765 mmHg 83%
    04:00 -6°C° 0 mm 1 m/S 766 mmHg 84%
    05:00 -6°C° 0 mm 1 m/S 766 mmHg 84%
    06:00 -6°C° 0 mm 1 m/S 766 mmHg 85%
    07:00 -7°C° 0 mm 2 m/S 766 mmHg 85%
    08:00 -6°C° 0 mm 2 m/S 766 mmHg 81%
    09:00 -6°C° 0 mm 3 m/S 766 mmHg 76%
    10:00 -5°C° 0 mm 3 m/S 766 mmHg 72%
    11:00 -4°C° 0 mm 3 m/S 765 mmHg 71%
    12:00 -4°C° 0 mm 4 m/S 765 mmHg 70%
    13:00 -3°C° 0 mm 4 m/S 765 mmHg 68%
    14:00 -3°C° 0 mm 4 m/S 764 mmHg 71%
    15:00 -4°C° 0 mm 4 m/S 764 mmHg 74%
    16:00 -4°C° 0 mm 4 m/S 764 mmHg 76%
    17:00 -5°C° 0 mm 4 m/S 763 mmHg 78%
    18:00 -6°C° 0 mm 5 m/S 763 mmHg 79%
    19:00 -7°C° 0 mm 5 m/S 763 mmHg 81%
    20:00 -7°C° 0 mm 5 m/S 763 mmHg 81%
    21:00 -7°C° 0 mm 5 m/S 763 mmHg 82%
    22:00 -7°C° 0 mm 5 m/S 762 mmHg 83%
    23:00 -7°C° 0 mm 5 m/S 762 mmHg 81%

    übermorgen, 21 Oktober, Montag

    Zeit Temperatur Niederschläge Wind Luftdruck Luftfeuchtigkeit
    00:00 -6°C° 0 mm 5 m/S 761 mmHg 80%
    01:00 -6°C° 0 mm 5 m/S 761 mmHg 79%
    02:00 -6°C° 0 mm 5 m/S 761 mmHg 77%
    03:00 -5°C° 0 mm 5 m/S 760 mmHg 76%
    04:00 -5°C° 0 mm 5 m/S 760 mmHg 74%
    05:00 -5°C° 0.4 mm 5 m/S 760 mmHg 80%
    06:00 -4°C° 0.4 mm 6 m/S 759 mmHg 86%
    07:00 -4°C° 0.4 mm 6 m/S 759 mmHg 92%
    08:00 -3°C° 0.9 mm 6 m/S 759 mmHg 92%
    09:00 -3°C° 0.9 mm 6 m/S 759 mmHg 93%
    10:00 -2°C° 0.9 mm 6 m/S 759 mmHg 93%
    11:00 -1°C° 0 mm 5 m/S 759 mmHg 92%
    12:00 0°C° 0 mm 5 m/S 759 mmHg 91%
    13:00 0°C° 0 mm 5 m/S 759 mmHg 91%
    14:00 0°C° 0 mm 4 m/S 758 mmHg 91%
    15:00 0°C° 0 mm 4 m/S 758 mmHg 91%
    16:00 0°C° 0 mm 4 m/S 758 mmHg 91%
    17:00 0°C° 0 mm 4 m/S 758 mmHg 91%
    18:00 0°C° 0 mm 4 m/S 758 mmHg 92%
    19:00 0°C° 0 mm 4 m/S 758 mmHg 92%
    20:00 0°C° 0 mm 4 m/S 757 mmHg 92%
    21:00 0°C° 0 mm 4 m/S 757 mmHg 92%
    22:00 0°C° 0 mm 4 m/S 756 mmHg 93%
    23:00 0°C° 0 mm 4 m/S 756 mmHg 93%

    22 Oktober, Dienstag

    Zeit Temperatur Niederschläge Wind Luftdruck Luftfeuchtigkeit
    00:00 0°C° 0 mm 4 m/S 755 mmHg 93%
    01:00 0°C° 0 mm 5 m/S 754 mmHg 94%
    02:00 0°C° 0.3 mm 5 m/S 753 mmHg 94%
    03:00 +1°C° 0.3 mm 5 m/S 753 mmHg 94%
    04:00 +1°C° 0.3 mm 6 m/S 752 mmHg 93%
    05:00 +2°C° 0.1 mm 6 m/S 751 mmHg 92%
    06:00 +2°C° 0.1 mm 7 m/S 751 mmHg 90%
    07:00 +2°C° 0.1 mm 7 m/S 750 mmHg 88%
    08:00 +3°C° 0.7 mm 7 m/S 749 mmHg 88%
    09:00 +3°C° 0.7 mm 7 m/S 748 mmHg 88%
    10:00 +2°C° 0.7 mm 8 m/S 748 mmHg 88%
    11:00 +4°C° 0.2 mm 8 m/S 747 mmHg 87%
    12:00 +4°C° 0.2 mm 7 m/S 747 mmHg 85%
    13:00 +4°C° 0.2 mm 7 m/S 746 mmHg 83%
    14:00 +4°C° 0 mm 7 m/S 746 mmHg 83%
    15:00 +4°C° 0 mm 7 m/S 746 mmHg 83%
    16:00 +4°C° 0 mm 8 m/S 745 mmHg 84%
    17:00 +4°C° 0.1 mm 7 m/S 746 mmHg 85%
    18:00 +4°C° 0.1 mm 7 m/S 746 mmHg 87%
    19:00 +4°C° 0.1 mm 7 m/S 746 mmHg 88%
    20:00 +4°C° 0 mm 6 m/S 746 mmHg 88%
    21:00 +3°C° 0 mm 6 m/S 746 mmHg 88%
    22:00 +3°C° 0 mm 5 m/S 747 mmHg 88%
    23:00 +3°C° 0 mm 5 m/S 747 mmHg 88%

    23 Oktober, Mittwoch

    Zeit Temperatur Niederschläge Wind Luftdruck Luftfeuchtigkeit
    00:00 +3°C° 0 mm 4 m/S 747 mmHg 89%
    01:00 +3°C° 0 mm 4 m/S 747 mmHg 90%
    02:00 +1°C° 0 mm 4 m/S 748 mmHg 89%
    03:00 +1°C° 0 mm 4 m/S 748 mmHg 88%
    04:00 0°C° 0 mm 5 m/S 748 mmHg 87%
    05:00 0°C° 0 mm 4 m/S 749 mmHg 87%
    06:00 -1°C° 0 mm 4 m/S 749 mmHg 87%
    07:00 -1°C° 0 mm 4 m/S 750 mmHg 87%
    08:00 -1°C° 0 mm 4 m/S 750 mmHg 84%
    09:00 0°C° 0 mm 4 m/S 751 mmHg 82%
    10:00 +1°C° 0 mm 4 m/S 751 mmHg 79%
    11:00 +1°C° 0 mm 4 m/S 751 mmHg 78%
    12:00 +2°C° 0 mm 3 m/S 752 mmHg 76%
    13:00 +2°C° 0 mm 3 m/S 752 mmHg 75%
    14:00 +2°C° 0 mm 3 m/S 752 mmHg 76%
    15:00 +3°C° 0 mm 2 m/S 752 mmHg 77%
    16:00 +2°C° 0 mm 2 m/S 752 mmHg 78%
    17:00 +2°C° 0 mm 2 m/S 752 mmHg 81%
    18:00 +1°C° 0 mm 2 m/S 753 mmHg 83%
    19:00 +1°C° 0 mm 2 m/S 753 mmHg 85%
    20:00 -1°C° 0 mm 2 m/S 753 mmHg 86%
    21:00 -1°C° 0 mm 2 m/S 753 mmHg 88%
    22:00 -1°C° 0 mm 2 m/S 753 mmHg 89%
    23:00 -1°C° 0 mm 2 m/S 752 mmHg 90%

    24 Oktober, Donnerstag

    Zeit Temperatur Niederschläge Wind Luftdruck Luftfeuchtigkeit
    00:00 -1°C° 0 mm 2 m/S 752 mmHg 90%
    01:00 -1°C° 0 mm 2 m/S 752 mmHg 91%
    02:00 -1°C° 0 mm 3 m/S 751 mmHg 90%
    03:00 -1°C° 0 mm 3 m/S 751 mmHg 89%
    04:00 -1°C° 0 mm 3 m/S 751 mmHg 88%
    05:00 -1°C° 0 mm 4 m/S 750 mmHg 88%
    06:00 -1°C° 0 mm 4 m/S 750 mmHg 87%
    07:00 0°C° 0 mm 5 m/S 750 mmHg 87%
    08:00 +1°C° 0 mm 5 m/S 749 mmHg 85%
    09:00 +2°C° 0 mm 5 m/S 749 mmHg 83%
    10:00 +3°C° 0 mm 6 m/S 749 mmHg 81%
    11:00 +3°C° 0.1 mm 5 m/S 749 mmHg 81%
    12:00 +3°C° 0.1 mm 5 m/S 748 mmHg 82%
    13:00 +5°C° 0.1 mm 5 m/S 748 mmHg 83%
    14:00 +5°C° 0 mm 5 m/S 748 mmHg 84%
    15:00 +5°C° 0 mm 5 m/S 748 mmHg 86%
    16:00 +5°C° 0 mm 5 m/S 748 mmHg 87%
    17:00 +3°C° 0 mm 5 m/S 748 mmHg 88%
    18:00 +3°C° 0 mm 5 m/S 748 mmHg 89%
    19:00 +3°C° 0 mm 5 m/S 748 mmHg 90%
    20:00 +4°C° 0 mm 4 m/S 749 mmHg 91%
    21:00 +4°C° 0 mm 4 m/S 749 mmHg 91%
    22:00 +3°C° 0 mm 3 m/S 749 mmHg 92%
    23:00 +3°C° 0 mm 3 m/S 749 mmHg 92%
    Mehr zeigen